EW4321 Weather Reports


time (UTC)temp
F
wind
direction
speed
knots
gust
knots
rain 1hr
in
rain 24hr
in
rain mn
in
humidity
%
barometer
mb
20260506162604 60 200 13.0 20.0 0.00 0.00 0.00 92 1012.0
20260506162105 60 199 13.0 20.9 0.00 0.00 0.00 92 1012.1
20260506161605 59 194 13.9 20.9 0.00 0.00 0.00 93 1012.2
20260506161105 59 198 12.2 19.1 0.00 0.00 0.00 93 1012.2
20260506160625 59 203 13.0 19.1 0.00 0.00 0.00 92 1012.3
20260506160105 59 195 11.3 20.9 0.00 0.00 0.00 92 1012.3
20260506155604 59 193 11.3 20.9 0.00 0.00 0.00 92 1012.2
20260506155105 59 192 13.0 18.2 0.00 0.00 0.00 92 1012.3
20260506154604 59 188 11.3 18.2 0.00 0.00 0.00 91 1012.3
20260506154105 59 196 12.2 21.7 0.00 0.00 0.00 91 1012.3
20260506153604 60 183 11.3 21.7 0.00 0.00 0.00 90 1012.4
20260506153105 60 189 11.3 18.2 0.00 0.00 0.00 90 1012.4
20260506152604 60 193 13.0 19.1 0.00 0.00 0.00 90 1012.4
20260506152105 60 194 11.3 19.1 0.00 0.00 0.00 89 1012.5
20260506151604 60 183 10.4 20.9 0.00 0.00 0.00 90 1012.4
20260506151105 60 180 11.3 22.6 0.00 0.00 0.00 90 1012.4
20260506150604 60 189 13.0 22.6 0.00 0.00 0.00 89 1012.5
20260506150127 61 194 14.8 20.0 0.00 0.00 0.00 90 1012.7
20260506145605 60 183 11.3 20.9 0.00 0.00 0.00 90 1012.5
20260506145104 60 190 13.9 21.7 0.00 0.00 0.00 89 1012.6
20260506144626 61 185 13.0 21.7 0.00 0.00 0.00 89 1012.8
20260506144105 61 184 13.9 21.7 0.00 0.00 0.00 88 1012.7
20260506143625 62 186 13.9 19.1 0.00 0.00 0.00 88 1012.9
20260506143105 61 190 13.0 19.1 0.00 0.00 0.00 89 1012.8
20260506142626 61 190 12.2 18.2 0.00 0.00 0.00 90 1012.7
20260506141604 60 192 10.4 19.1 0.00 0.00 0.00 92 1012.7
20260506141105 60 185 12.2 19.1 0.00 0.00 0.00 91 1012.6
20260506140604 60 190 11.3 20.9 0.00 0.00 0.00 92 1012.6
20260506140105 59 186 12.2 20.9 0.00 0.00 0.00 91 1012.6
20260506135626 60 185 12.2 18.2 0.00 0.00 0.00 90 1012.6
20260506135104 60 185 10.4 19.1 0.00 0.00 0.00 91 1012.7
20260506134605 60 185 11.3 20.9 0.00 0.00 0.00 91 1012.8
20260506134104 60 192 13.0 22.6 0.00 0.00 0.00 91 1012.8
20260506133605 60 192 13.9 23.5 0.00 0.00 0.00 91 1012.9
20260506133104 60 193 15.6 24.3 0.00 0.00 0.00 90 1013.0
20260506132604 60 189 15.6 24.3 0.00 0.00 0.00 90 1013.0
20260506132105 61 189 14.8 21.7 0.00 0.00 0.00 90 1013.1
20260506131604 60 187 13.9 20.9 0.00 0.00 0.00 91 1013.2
20260506131105 60 195 13.9 18.2 0.00 0.00 0.00 91 1013.0
20260506130604 60 196 12.2 20.9 0.00 0.00 0.00 92 1013.1
20260506130105 60 190 13.0 20.9 0.00 0.00 0.00 92 1013.0
20260506125605 60 192 13.9 19.1 0.00 0.00 0.00 92 1013.0
20260506125106 60 192 12.2 20.9 0.00 0.00 0.00 92 1013.0
20260506124605 59 196 12.2 20.9 0.00 0.00 0.00 93 1013.1
20260506124105 59 197 12.2 20.0 0.00 0.00 0.00 93 1013.0
20260506123605 59 192 11.3 20.0 0.00 0.00 0.00 94 1013.0
20260506123104 59 192 13.0 20.0 0.00 0.00 0.00 94 1013.0
20260506122604 59 189 12.2 19.1 0.00 0.00 0.00 93 1012.9
20260506122104 59 190 13.0 19.1 0.00 0.00 0.00 94 1013.0
20260506121605 59 193 13.0 19.1 0.00 0.00 0.00 94 1012.9
20260506121104 58 199 13.9 19.1 0.00 0.00 0.00 95 1012.9
20260506120605 58 194 13.0 18.2 0.00 0.00 0.00 95 1012.9
20260506120104 58 187 11.3 18.2 0.00 0.00 0.00 95 1012.9
20260506115605 58 191 13.0 18.2 0.00 0.00 0.00 96 1012.8
20260506115104 58 192 13.9 18.2 0.00 0.00 0.00 96 1012.9
20260506114626 57 194 12.2 20.0 0.00 0.00 0.00 96 1012.9
20260506114105 57 194 13.9 20.9 0.00 0.00 0.00 96 1012.8
20260506113625 57 192 13.9 20.9 0.00 0.00 0.00 96 1012.8
20260506113105 57 192 12.2 20.9 0.00 0.00 0.00 96 1012.9
20260506112604 57 188 12.2 20.9 0.00 0.00 0.00 97 1012.9
20260506112104 57 194 14.8 20.9 0.00 0.00 0.00 97 1012.9
20260506111605 57 194 13.0 19.1 0.00 0.00 0.00 97 1012.9
20260506111104 57 197 13.0 19.1 0.00 0.00 0.00 97 1012.9
20260506110604 57 190 13.0 18.2 0.00 0.00 0.00 97 1012.8
20260506110104 57 193 12.2 19.1 0.00 0.00 0.00 97 1012.9
20260506105604 57 195 11.3 21.7 0.00 0.00 0.00 97 1012.9
20260506105105 57 192 13.0 22.6 0.00 0.00 0.00 97 1012.9
20260506104604 56 192 13.9 22.6 0.00 0.00 0.00 97 1012.8
20260506104105 56 193 13.9 22.6 0.00 0.00 0.00 97 1012.7
20260506103604 56 194 13.0 22.6 0.00 0.00 0.00 97 1012.7
20260506103105 56 194 13.0 21.7 0.00 0.00 0.00 97 1012.7
20260506102626 56 193 13.9 21.7 0.00 0.00 0.00 97 1012.8
20260506102104 56 189 13.0 20.0 0.00 0.00 0.00 97 1012.7
20260506101626 56 189 12.2 20.0 0.00 0.00 0.00 98 1012.8
20260506101104 56 197 11.3 19.1 0.00 0.00 0.00 97 1012.7
20260506100604 56 195 12.2 19.1 0.00 0.00 0.00 98 1012.7
20260506100105 56 193 9.6 18.2 0.00 0.00 0.00 97 1012.6
20260506095625 56 187 11.3 18.2 0.00 0.00 0.00 97 1012.5
20260506095105 56 185 10.4 17.4 0.00 0.00 0.00 97 1012.5
20260506094604 56 194 12.2 18.2 0.00 0.00 0.00 97 1012.5
20260506094104 56 189 12.2 18.2 0.00 0.00 0.00 97 1012.6
20260506093605 56 192 11.3 20.0 0.00 0.00 0.00 97 1012.6
20260506093104 56 193 13.0 20.0 0.00 0.00 0.00 97 1012.8
20260506092604 56 185 10.4 17.4 0.00 0.00 0.00 97 1012.6
20260506091604 56 185 13.9 19.1 0.00 0.00 0.00 97 1012.8
20260506091105 56 186 12.2 20.9 0.00 0.00 0.00 97 1012.8
20260506090604 56 191 13.0 20.9 0.00 0.00 0.00 97 1012.9
20260506090105 56 188 11.3 19.1 0.00 0.00 0.00 97 1013.0
20260506085604 56 186 12.2 20.0 0.00 0.00 0.00 97 1013.1
20260506085104 56 186 13.0 20.0 0.00 0.00 0.00 97 1013.1
20260506084605 56 192 13.9 19.1 0.00 0.00 0.00 97 1013.2
20260506084105 56 183 11.3 19.1 0.00 0.00 0.00 97 1013.1
20260506083625 56 182 12.2 21.7 0.00 0.00 0.00 97 1013.1
20260506083105 56 192 12.2 21.7 0.00 0.00 0.00 97 1013.1
20260506082604 56 191 12.2 19.1 0.00 0.00 0.00 97 1013.0
20260506082105 56 192 11.3 19.1 0.00 0.00 0.00 97 1013.0
20260506081604 56 184 12.2 18.2 0.00 0.00 0.00 97 1013.1
20260506081104 56 190 13.0 18.2 0.00 0.00 0.00 97 1013.1
20260506080626 56 192 11.3 20.9 0.00 0.00 0.00 97 1013.2
20260506080104 56 189 13.0 20.9 0.00 0.00 0.00 96 1013.1
20260506073104 56 189 11.3 19.1 0.00 0.00 0.00 96 1013.2
20260506072605 56 192 11.3 20.9 0.00 0.00 0.00 96 1013.2
20260506072125 56 189 11.3 20.9 0.00 0.00 0.00 96 1013.2
20260506071604 57 191 13.0 19.1 0.00 0.00 0.00 96 1013.2
20260506071104 57 187 11.3 19.1 0.00 0.00 0.00 96 1013.2
20260506070604 57 193 13.0 19.1 0.00 0.00 0.00 96 1013.3
20260506070105 57 194 13.9 19.1 0.00 0.00 0.00 96 1013.3
20260506062104 57 197 13.9 20.9 0.00 0.00 0.00 95 1013.4
20260506061605 57 197 12.2 20.9 0.00 0.00 0.00 94 1013.3
20260506061125 57 192 11.3 20.9 0.00 0.00 0.00 94 1013.3
20260506060604 57 191 11.3 20.9 0.00 0.00 0.00 94 1013.4
20260506060104 57 194 12.2 20.9 0.00 0.00 0.00 94 1013.4
20260506051125 57 194 11.3 20.0 0.00 0.00 0.00 93 1013.8
20260506050604 57 204 13.0 19.1 0.00 0.00 0.00 93 1013.9
20260506050104 57 197 13.0 18.2 0.00 0.00 0.00 93 1013.9
20260506045104 57 203 13.0 20.9 0.00 0.00 0.00 93 1013.8
20260506044604 57 200 13.9 19.1 0.00 0.00 0.00 94 1013.8
20260506044105 57 199 10.4 17.4 0.00 0.00 0.00 94 1013.8
20260506043605 57 199 10.4 17.4 0.00 0.00 0.00 93 1013.9
20260506043104 57 194 11.3 19.1 0.00 0.00 0.00 93 1013.8
20260506042625 57 194 12.2 19.1 0.00 0.00 0.00 93 1013.9
20260506042105 57 196 11.3 18.2 0.00 0.00 0.00 93 1013.8
20260506041605 57 191 13.0 18.2 0.00 0.00 0.00 93 1013.8
20260506040604 57 190 12.2 17.4 0.00 0.00 0.00 93 1013.8
20260506040104 57 189 10.4 18.2 0.00 0.00 0.00 93 1013.8
20260506035605 57 188 12.2 19.1 0.00 0.00 0.00 93 1013.8
20260506035105 57 196 12.2 19.1 0.00 0.00 0.00 93 1013.9
20260506034606 57 192 12.2 19.1 0.00 0.00 0.00 93 1014.0
20260506034104 57 192 10.4 19.1 0.00 0.00 0.00 93 1014.0
20260506033605 57 190 10.4 20.0 0.00 0.00 0.00 93 1014.0
20260506033105 57 187 10.4 20.9 0.00 0.00 0.00 93 1014.1
20260506032604 57 194 11.3 20.9 0.00 0.00 0.00 92 1014.1
20260506032126 57 194 12.2 20.0 0.00 0.00 0.00 92 1014.0
20260506031604 57 193 13.9 19.1 0.00 0.00 0.00 92 1014.0
20260506031104 58 189 9.6 19.1 0.00 0.00 0.00 92 1014.0
20260506030626 58 190 11.3 19.1 0.00 0.00 0.00 92 1014.1
20260506030104 58 196 13.0 19.1 0.00 0.00 0.00 92 1014.0
20260506025606 58 195 12.2 23.5 0.00 0.00 0.00 92 1014.0
20260506025106 58 196 10.4 23.5 0.00 0.00 0.00 92 1014.0
20260506024605 58 195 13.9 20.9 0.00 0.00 0.00 92 1014.0
20260506024126 58 191 12.2 17.4 0.00 0.00 0.00 91 1014.0
20260506023628 58 197 10.4 18.2 0.00 0.00 0.00 91 1014.1
20260506023107 58 198 13.0 18.2 0.00 0.00 0.00 91 1014.1
20260506022604 58 198 11.3 18.2 0.00 0.00 0.00 91 1014.1
20260506022104 58 197 11.3 17.4 0.00 0.00 0.00 91 1014.1
20260506021604 58 199 9.6 16.5 0.00 0.00 0.00 91 1014.2
20260506021104 58 196 11.3 16.5 0.00 0.00 0.00 91 1014.2
20260506020604 58 195 8.7 17.4 0.00 0.00 0.00 91 1014.1
20260506020104 58 192 12.2 17.4 0.00 0.00 0.00 91 1014.1
20260506015604 58 189 9.6 17.4 0.00 0.00 0.00 91 1014.1
20260506015104 58 196 11.3 19.1 0.00 0.00 0.00 91 1014.1
20260506014625 58 195 11.3 19.1 0.00 0.00 0.00 91 1014.1
20260506014104 58 191 12.2 18.2 0.00 0.00 0.00 91 1014.0
20260506013605 58 187 10.4 18.2 0.00 0.00 0.00 91 1014.0
20260506013104 58 195 12.2 16.5 0.00 0.00 0.00 91 1014.0
20260506012604 58 196 8.7 17.4 0.00 0.00 0.00 91 1014.0
20260506012104 58 191 12.2 18.2 0.00 0.00 0.00 91 1013.9
20260506011605 58 192 12.2 19.1 0.00 0.00 0.00 91 1013.7
20260506011104 58 188 13.9 19.1 0.00 0.00 0.00 91 1013.6
20260506010604 58 193 11.3 20.0 0.00 0.00 0.00 91 1013.6
20260506010104 58 193 12.2 20.0 0.00 0.00 0.00 91 1013.5
20260506005604 58 190 11.3 20.0 0.00 0.00 0.00 91 1013.4
20260506005104 58 192 13.0 20.0 0.00 0.00 0.00 91 1013.4
20260506004625 58 195 11.3 19.1 0.00 0.00 0.00 91 1013.4
20260506004105 58 195 12.2 19.1 0.00 0.00 0.00 91 1013.5
20260506003605 58 191 12.2 17.4 0.00 0.00 0.00 91 1013.4
20260506003104 58 195 12.2 18.2 0.00 0.00 0.00 90 1013.5
20260506002604 58 199 11.3 19.1 0.00 0.00 0.00 90 1013.5
20260506002104 58 195 12.2 20.9 0.00 0.00 0.00 90 1013.4
20260506001604 58 191 13.9 20.9 0.00 0.00 0.00 90 1013.4
20260506001105 58 192 12.2 20.0 0.00 0.00 0.00 89 1013.3
20260506000604 59 200 11.3 23.5 0.00 0.00 0.00 89 1013.2
20260506000105 59 197 13.0 23.5 0.00 0.00 0.00 89 1013.2
20260505235604 59 190 13.9 21.7 0.00 0.00 0.00 88 1013.1
20260505235104 59 197 12.2 21.7 0.00 0.00 0.00 88 1013.1
20260505234604 59 195 15.6 23.5 0.00 0.00 0.00 87 1013.0
20260505234104 59 197 12.2 23.5 0.00 0.00 0.00 87 1013.0
20260505233604 60 196 13.9 21.7 0.00 0.00 0.00 87 1013.0
20260505233103 60 194 14.8 22.6 0.00 0.00 0.00 86 1013.0
20260505232625 60 190 14.8 22.6 0.00 0.00 0.00 86 1013.0
20260505232125 61 195 14.8 26.1 0.00 0.00 0.00 85 1012.7
20260505231604 61 175 14.8 26.1 0.00 0.00 0.00 85 1012.7
20260505231104 61 197 13.0 25.2 0.00 0.00 0.00 85 1012.8
20260505230604 61 177 12.2 25.2 0.00 0.00 0.00 85 1012.8
20260505230104 61 197 13.9 20.9 0.00 0.00 0.00 85 1012.8
20260505225626 61 198 10.4 20.9 0.00 0.00 0.00 84 1012.7
20260505225126 62 192 14.8 21.7 0.00 0.00 0.00 83 1012.6
20260505224625 62 187 15.6 25.2 0.00 0.00 0.00 83 1012.4
20260505224104 62 194 13.0 25.2 0.00 0.00 0.00 83 1012.5
20260505223604 62 197 12.2 20.9 0.00 0.00 0.00 83 1012.4
20260505223104 62 198 11.3 22.6 0.00 0.00 0.00 83 1012.6
20260505222604 62 194 11.3 22.6 0.00 0.00 0.00 83 1012.7
20260505222104 62 201 13.9 24.3 0.00 0.00 0.00 83 1012.6
20260505221604 62 199 13.0 24.3 0.00 0.00 0.00 83 1012.6
20260505221104 62 198 13.9 22.6 0.00 0.00 0.00 83 1012.5
20260505220604 62 202 12.2 22.6 0.00 0.00 0.00 83 1012.4
20260505220104 63 200 13.0 22.6 0.00 0.00 0.00 83 1012.4
20260505215647 63 202 12.2 23.5 0.00 0.00 0.00 83 1012.5
20260505215104 62 200 12.2 23.5 0.00 0.00 0.00 83 1012.4
20260505214604 63 204 14.8 24.3 0.00 0.00 0.00 82 1012.2
20260505214104 62 198 13.9 25.2 0.00 0.00 0.00 82 1012.3
20260505213627 63 196 13.0 26.1 0.00 0.00 0.00 82 1012.2
20260505213104 63 197 16.5 26.1 0.00 0.00 0.00 82 1012.1
20260505212604 63 189 14.8 24.3 0.00 0.00 0.00 82 1012.1
20260505212104 63 190 15.6 24.3 0.00 0.00 0.00 81 1012.2
20260505211604 63 193 12.2 23.5 0.00 0.00 0.00 82 1012.2
20260505211105 64 192 13.9 23.5 0.00 0.00 0.00 82 1012.1
20260505210604 63 194 14.8 24.3 0.00 0.00 0.00 82 1012.1
20260505210104 63 191 15.6 24.3 0.00 0.00 0.00 82 1012.0
20260505205604 63 189 13.9 23.5 0.00 0.00 0.00 82 1012.0
20260505205104 63 188 14.8 21.7 0.00 0.00 0.00 81 1012.0
20260505204604 64 191 13.9 21.7 0.00 0.00 0.00 81 1012.0
20260505204104 64 193 15.6 21.7 0.00 0.00 0.00 81 1011.9
20260505203626 64 191 14.8 21.7 0.00 0.00 0.00 81 1012.0
20260505203104 64 190 14.8 21.7 0.00 0.00 0.00 81 1012.1
20260505202604 64 191 13.0 22.6 0.00 0.00 0.00 81 1012.1
20260505202104 64 185 14.8 22.6 0.00 0.00 0.00 81 1012.2
20260505201604 64 196 14.8 21.7 0.00 0.00 0.00 81 1012.3
20260505201125 64 193 14.8 22.6 0.00 0.00 0.00 81 1012.2
20260505200605 64 195 14.8 22.6 0.00 0.00 0.00 81 1012.3
20260505200104 63 196 14.8 22.6 0.00 0.00 0.00 82 1012.4
20260505195604 63 189 13.0 22.6 0.00 0.00 0.00 82 1012.4
20260505195104 63 188 13.0 21.7 0.00 0.00 0.00 82 1012.4
20260505194604 63 190 14.8 21.7 0.00 0.00 0.00 82 1012.5
20260505194104 63 193 13.0 20.9 0.00 0.00 0.00 82 1012.5
20260505193604 63 187 15.6 25.2 0.00 0.00 0.00 81 1012.5
20260505193104 63 192 13.9 25.2 0.00 0.00 0.00 82 1012.6
20260505192604 64 189 13.0 21.7 0.00 0.00 0.00 81 1012.7
20260505192104 64 181 12.2 18.2 0.00 0.00 0.00 81 1012.7
20260505191604 64 189 12.2 18.2 0.00 0.00 0.00 82 1012.9
20260505191126 63 189 12.2 19.1 0.00 0.00 0.00 83 1012.8
20260505190604 63 178 13.9 21.7 0.00 0.00 0.00 83 1012.8
20260505190125 63 178 13.0 21.7 0.00 0.00 0.00 83 1012.9
20260505185604 63 179 13.0 20.9 0.00 0.00 0.00 82 1012.9
20260505185104 63 184 12.2 20.9 0.00 0.00 0.00 83 1012.9
20260505184605 63 176 11.3 20.9 0.00 0.00 0.00 83 1012.9
20260505184104 63 181 14.8 20.0 0.00 0.00 0.00 82 1013.0
20260505183604 63 180 12.2 21.7 0.00 0.00 0.00 83 1013.0
20260505183105 62 189 13.0 21.7 0.00 0.00 0.00 84 1013.1
20260505182604 62 187 12.2 20.9 0.00 0.00 0.00 83 1013.1
20260505182126 62 190 12.2 21.7 0.00 0.00 0.00 83 1013.1
20260505181604 62 195 14.8 24.3 0.00 0.00 0.00 83 1013.1
20260505181104 62 186 12.2 24.3 0.00 0.00 0.00 84 1013.2
20260505180605 62 183 12.2 22.6 0.00 0.00 0.00 83 1013.3
20260505180104 63 191 13.9 22.6 0.00 0.00 0.00 83 1013.4
20260505175605 63 191 14.8 21.7 0.00 0.00 0.00 83 1013.4
20260505175104 63 188 13.0 18.2 0.00 0.00 0.00 83 1013.4
20260505174646 63 183 12.2 18.2 0.00 0.00 0.00 83 1013.5
20260505174106 63 181 13.0 19.1 0.00 0.00 0.00 83 1013.4
20260505173603 62 184 13.0 19.1 0.00 0.00 0.00 84 1013.4
20260505173104 62 187 12.2 20.0 0.00 0.00 0.00 84 1013.4
20260505172604 62 192 13.9 20.0 0.00 0.00 0.00 83 1013.4
20260505172104 62 181 11.3 20.0 0.00 0.00 0.00 84 1013.4
20260505171604 62 188 12.2 20.0 0.00 0.00 0.00 85 1013.4
20260505171104 62 181 13.9 20.9 0.00 0.00 0.00 84 1013.3
20260505170604 62 177 13.9 20.9 0.00 0.00 0.00 84 1013.4
20260505170104 62 184 12.2 20.0 0.00 0.00 0.00 85 1013.4
20260505165625 62 180 12.2 17.4 0.00 0.00 0.00 85 1013.2
20260505165104 61 186 13.0 19.1 0.00 0.00 0.00 85 1013.1
20260505164606 61 186 13.0 19.1 0.00 0.00 0.00 86 1013.2
20260505164104 61 180 13.0 19.1 0.00 0.00 0.00 85 1013.3
20260505163604 61 179 13.0 20.0 0.00 0.00 0.00 85 1013.3
20260505163104 61 182 9.6 20.0 0.00 0.00 0.00 85 1013.5